GW6058 Weather Reports


time (UTC)temp
C
wind
direction
speed
KPH
gust
KPH
rain 1hr
cm
rain 24hr
cm
rain mn
cm
humidity
%
barometer
mb
20260505124817 17 206 3.2 4.8 0.00 0.00 0.00 81
20260505124314 17 138 4.8 6.4 0.00 0.00 0.00 81
20260505123810 17 118 1.6 4.8 0.00 0.00 0.00 82
20260505123307 17 186 3.2 11.3 0.00 0.00 0.00 83
20260505122803 16 153 3.2 4.8 0.00 0.00 0.00 84
20260505122301 16 113 1.6 9.7 0.00 0.00 0.00 85
20260505121757 16 123 4.8 4.8 0.00 0.00 0.00 86
20260505121254 16 73 3.2 6.4 0.00 0.00 0.00 87
20260505120750 15 145 0.0 1.6 0.00 0.00 0.00 88
20260505120246 15 87 0.0 4.8 0.00 0.00 0.00 89
20260505115745 15 96 0.0 4.8 0.00 0.00 0.00 90
20260505115243 14 102 3.2 3.2 0.00 0.00 0.00 91
20260505114740 14 101 0.0 1.6 0.00 0.00 0.00 92
20260505114235 14 93 0.0 1.6 0.00 0.00 0.00 93
20260505113733 13 92 3.2 4.8 0.00 0.00 0.00 94
20260505113229 13 104 0.0 0.0 0.00 0.00 0.00 94
20260505112725 13 92 0.0 0.0 0.00 0.00 0.00 94
20260505112223 13 103 0.0 0.0 0.00 0.00 0.00 93
20260505111723 13 82 0.0 0.0 0.00 0.00 0.00 93
20260505111219 13 82 0.0 0.0 0.00 0.00 0.00 93
20260505110715 13 83 0.0 0.0 0.00 0.00 0.00 92
20260505110213 13 90 0.0 0.0 0.00 0.00 0.00 92
20260505102148 13 98 1.6 1.6 0.00 0.00 0.00 93
20260505101647 12 90 0.0 0.0 0.00 0.00 0.00 93
20260505101143 12 94 0.0 0.0 0.00 0.00 0.00 93
20260505100639 12 94 0.0 0.0 0.00 0.00 0.00 93
20260505100136 13 94 0.0 0.0 0.00 0.00 0.00 93
20260505095632 13 94 0.0 1.6 0.00 0.00 0.00 93
20260505095129 13 104 0.0 0.0 0.00 0.00 0.00 92
20260505094625 13 98 0.0 0.0 0.00 0.00 0.00 92
20260505094122 13 98 0.0 0.0 0.00 0.00 0.00 92
20260505093618 13 98 0.0 0.0 0.00 0.00 0.00 92
20260505093115 13 98 0.0 0.0 0.00 0.00 0.00 92
20260505092612 13 98 0.0 0.0 0.00 0.00 0.00 91
20260505092112 13 98 0.0 0.0 0.00 0.00 0.00 91
20260505091607 13 98 0.0 0.0 0.00 0.00 0.00 91
20260505091106 13 98 0.0 0.0 0.00 0.00 0.00 91
20260505090603 13 98 0.0 0.0 0.00 0.00 0.00 90
20260505090101 13 98 0.0 0.0 0.00 0.00 0.00 90
20260505085558 13 98 0.0 0.0 0.00 0.00 0.00 90
20260505085057 13 98 0.0 0.0 0.00 0.00 0.00 90
20260505084554 13 98 0.0 0.0 0.00 0.00 0.00 89
20260505084052 13 99 0.0 0.0 0.00 0.00 0.00 88
20260505083549 14 99 0.0 0.0 0.00 0.00 0.00 88
20260505083046 14 98 0.0 0.0 0.00 0.00 0.00 87
20260505082541 14 98 0.0 0.0 0.00 0.00 0.00 86
20260505082039 14 85 0.0 0.0 0.00 0.00 0.00 85
20260505081535 15 87 0.0 0.0 0.00 0.00 0.00 85
20260505081032 15 87 0.0 0.0 0.00 0.00 0.00 84
20260505080528 15 94 0.0 1.6 0.00 0.00 0.00 84
20260505080025 15 90 0.0 0.0 0.00 0.00 0.00 83
20260505075521 15 89 0.0 0.0 0.00 0.00 0.00 83
20260505075018 15 90 0.0 0.0 0.00 0.00 0.00 83
20260505074515 15 109 0.0 1.6 0.00 0.00 0.00 82
20260505074012 16 126 0.0 0.0 0.00 0.00 0.00 82
20260505073510 16 117 0.0 0.0 0.00 0.00 0.00 82
20260505073008 16 161 3.2 3.2 0.00 0.00 0.00 82
20260505072503 16 85 0.0 1.6 0.00 0.00 0.00 82
20260505071959 16 202 1.6 1.6 0.00 0.00 0.00 81
20260505071455 16 123 1.6 3.2 0.00 0.00 0.00 81
20260505070953 16 132 1.6 3.2 0.00 0.00 0.00 81
20260505070450 16 88 0.0 1.6 0.00 0.00 0.00 80
20260505065946 16 81 0.0 1.6 0.00 0.00 0.00 80
20260505065442 16 108 3.2 4.8 0.00 0.00 0.00 80
20260505064939 16 97 0.0 1.6 0.00 0.00 0.00 81
20260505064436 16 100 0.0 1.6 0.00 0.00 0.00 81
20260505063934 16 148 0.0 1.6 0.00 0.00 0.00 80
20260505063431 16 90 0.0 0.0 0.00 0.00 0.00 80
20260505062927 16 108 0.0 0.0 0.00 0.00 0.00 79
20260505062425 16 108 0.0 1.6 0.00 0.00 0.00 79
20260505061921 16 72 0.0 1.6 0.00 0.00 0.00 79
20260505061420 16 131 0.0 0.0 0.00 0.00 0.00 79
20260505060917 16 89 0.0 0.0 0.00 0.00 0.00 78
20260505060413 16 81 0.0 1.6 0.00 0.00 0.00 78
20260505055910 17 142 0.0 1.6 0.00 0.00 0.00 77
20260505055406 16 111 1.6 6.4 0.00 0.00 0.00 77
20260505054903 16 108 0.0 4.8 0.00 0.00 0.00 77
20260505054400 17 107 1.6 3.2 0.00 0.00 0.00 77
20260505053858 17 110 1.6 3.2 0.00 0.00 0.00 77
20260505053355 17 128 1.6 3.2 0.00 0.00 0.00 76
20260505052852 17 79 0.0 1.6 0.00 0.00 0.00 76
20260505052348 17 161 4.8 6.4 0.00 0.00 0.00 75
20260505051846 17 116 3.2 6.4 0.00 0.00 0.00 76
20260505051343 17 78 0.0 1.6 0.00 0.00 0.00 75
20260505050841 17 134 1.6 3.2 0.00 0.00 0.00 75
20260505050339 17 107 1.6 4.8 0.00 0.00 0.00 74
20260505041306 18 105 3.2 6.4 0.00 0.00 0.00 70
20260505040804 18 87 0.0 4.8 0.00 0.00 0.00 70
20260505040301 18 118 4.8 9.7 0.00 0.00 0.00 70
20260505035758 18 108 1.6 6.4 0.00 0.00 0.00 69
20260505035253 18 91 3.2 4.8 0.00 0.00 0.00 69
20260505034751 18 73 0.0 4.8 0.00 0.00 0.00 68
20260505034247 18 107 1.6 3.2 0.00 0.00 0.00 68
20260505033744 18 97 1.6 9.7 0.00 0.00 0.00 67
20260505033242 18 85 0.0 1.6 0.00 0.00 0.00 67
20260505032740 18 88 1.6 4.8 0.00 0.00 0.00 66
20260505032235 18 81 1.6 4.8 0.00 0.00 0.00 65
20260505031733 18 117 3.2 3.2 0.00 0.00 0.00 64
20260505031229 18 81 3.2 3.2 0.00 0.00 0.00 63
20260505030726 19 71 0.0 3.2 0.00 0.00 0.00 62
20260505030222 19 130 1.6 1.6 0.00 0.00 0.00 61
20260505025718 19 80 3.2 3.2 0.00 0.00 0.00 60
20260505025217 20 96 0.0 0.0 0.00 0.00 0.00 60
20260505024714 20 97 0.0 3.2 0.00 0.00 0.00 59
20260505024211 20 99 3.2 9.7 0.00 0.00 0.00 59
20260505023708 20 73 1.6 6.4 0.00 0.00 0.00 58
20260505023205 20 147 6.4 11.3 0.00 0.00 0.00 58
20260505022703 20 95 1.6 6.4 0.00 0.00 0.00 57
20260505022200 20 130 6.4 11.3 0.00 0.00 0.00 57
20260505021656 20 86 0.0 1.6 0.00 0.00 0.00 57
20260505021153 20 80 1.6 1.6 0.00 0.00 0.00 56
20260505020649 20 109 1.6 6.4 0.00 0.00 0.00 55
20260505020145 20 102 1.6 3.2 0.00 0.00 0.00 55
20260505015642 20 102 1.6 1.6 0.00 0.00 0.00 55
20260505015139 20 121 3.2 4.8 0.00 0.00 0.00 54
20260505014636 18 143 3.2 9.7 0.00 0.00 0.00 57
20260505014133 17 23 3.2 4.8 0.00 0.00 0.00 59
20260505013630 17 185 0.0 0.0 0.00 0.00 0.00 60
20260505013127 18 185 0.0 0.0 0.00 0.00 0.00 59
20260505012626 18 185 0.0 0.0 0.00 0.00 0.00 56
20260505012122 18 185 0.0 0.0 0.00 0.00 0.00 60
20260505011618 18 185 0.0 0.0 0.00 0.00 0.00 56
20260505011115 18 185 0.0 0.0 0.00 0.00 0.00 56
20260505010610 19 185 0.0 0.0 0.00 0.00 0.00 55
20260505010108 19 185 0.0 0.0 0.00 0.00 0.00 54
20260505005603 20 185 0.0 0.0 0.00 0.00 0.00 54
20260505005101 20 185 0.0 0.0 0.00 0.00 0.00 56
20260505004558 20 185 0.0 0.0 0.00 0.00 0.00 54
20260505004055 21 185 0.0 0.0 0.00 0.00 0.00 53
20260505003552 21 186 0.0 0.0 0.00 0.00 0.00 46
20260505003049 21 186 0.0 0.0 0.00 0.00 0.00 47
20260505002550 22 186 0.0 0.0 0.00 0.00 0.00 45
20260505002049 22 186 0.0 0.0 0.00 0.00 0.00 43
20260505001546 23 186 0.0 0.0 0.00 0.00 0.00 41
20260505001043 23 177 0.0 1.6 0.00 0.00 0.00 41
20260505000540 23 162 0.0 1.6 0.00 0.00 0.00 41
20260505000038 23 204 1.6 3.2 0.00 0.00 0.00 38
20260504235534 24 169 0.0 0.0 0.00 0.00 0.00 39
20260504235031 25 185 1.6 1.6 0.00 0.00 0.00 36
20260504234528 25 190 0.0 3.2 0.00 0.00 0.00 38
20260504234025 25 210 1.6 3.2 0.00 0.00 0.00 35
20260504233520 25 220 3.2 3.2 0.00 0.00 0.00 35
20260504233017 25 189 3.2 6.4 0.00 0.00 0.00 34
20260504232514 26 200 3.2 6.4 0.00 0.00 0.00 34
20260504232012 26 191 1.6 4.8 0.00 0.00 0.00 33
20260504231508 26 279 1.6 4.8 0.00 0.00 0.00 32
20260504231004 26 241 1.6 3.2 0.00 0.00 0.00 32
20260504230500 26 246 1.6 4.8 0.00 0.00 0.00 32
20260504230000 26 242 3.2 4.8 0.00 0.00 0.00 32
20260504225456 26 247 3.2 4.8 0.00 0.00 0.00 32
20260504224953 26 281 1.6 4.8 0.00 0.00 0.00 32
20260504224450 26 227 3.2 9.7 0.00 0.00 0.00 32
20260504223947 26 138 8.0 11.3 0.00 0.00 0.00 32
20260504223443 26 252 4.8 4.8 0.00 0.00 0.00 32
20260504222938 27 266 3.2 6.4 0.00 0.00 0.00 32
20260504222436 27 262 3.2 4.8 0.00 0.00 0.00 33
20260504221934 27 32 0.0 1.6 0.00 0.00 0.00 31
20260504221431 27 164 1.6 3.2 0.00 0.00 0.00 32
20260504220928 27 234 3.2 4.8 0.00 0.00 0.00 32
20260504220425 27 213 4.8 6.4 0.00 0.00 0.00 31
20260504215922 27 198 3.2 11.3 0.00 0.00 0.00 33
20260504215419 27 191 3.2 4.8 0.00 0.00 0.00 30
20260504214915 27 327 1.6 3.2 0.00 0.00 0.00 30
20260504214411 28 264 8.0 9.7 0.00 0.00 0.00 32
20260504213908 28 290 4.8 9.7 0.00 0.00 0.00 29
20260504213404 28 232 3.2 4.8 0.00 0.00 0.00 29
20260504212902 27 311 1.6 4.8 0.00 0.00 0.00 29
20260504212357 27 85 1.6 6.4 0.00 0.00 0.00 30
20260504211855 27 116 0.0 4.8 0.00 0.00 0.00 31
20260504211351 28 25 1.6 12.9 0.00 0.00 0.00 29
20260504210849 27 184 1.6 1.6 0.00 0.00 0.00 29
20260504210345 27 99 4.8 12.9 0.00 0.00 0.00 28
20260504205843 27 282 3.2 4.8 0.00 0.00 0.00 28
20260504205341 27 298 3.2 4.8 0.00 0.00 0.00 30
20260504204838 27 130 1.6 11.3 0.00 0.00 0.00 29
20260504204337 27 266 1.6 9.7 0.00 0.00 0.00 29
20260504203836 27 173 4.8 14.5 0.00 0.00 0.00 30
20260504203332 27 332 8.0 11.3 0.00 0.00 0.00 30
20260504202828 27 185 1.6 3.2 0.00 0.00 0.00 29
20260504202326 28 221 6.4 9.7 0.00 0.00 0.00 28
20260504201822 28 313 4.8 4.8 0.00 0.00 0.00 29
20260504201319 28 245 0.0 3.2 0.00 0.00 0.00 30
20260504200817 27 53 0.0 4.8 0.00 0.00 0.00 31
20260504200313 27 271 3.2 6.4 0.00 0.00 0.00 30
20260504195809 27 216 8.0 11.3 0.00 0.00 0.00 30
20260504195305 28 210 1.6 4.8 0.00 0.00 0.00 29
20260504194802 27 163 3.2 3.2 0.00 0.00 0.00 33
20260504194258 28 270 0.0 6.4 0.00 0.00 0.00 29
20260504193754 28 234 3.2 4.8 0.00 0.00 0.00 29
20260504193252 28 59 1.6 4.8 0.00 0.00 0.00 30
20260504192750 27 310 3.2 4.8 0.00 0.00 0.00 31
20260504192248 27 291 3.2 3.2 0.00 0.00 0.00 30
20260504191747 26 120 1.6 3.2 0.00 0.00 0.00 31
20260504191243 27 28 1.6 6.4 0.00 0.00 0.00 29
20260504190739 27 62 0.0 3.2 0.00 0.00 0.00 33
20260504190235 27 18 4.8 6.4 0.00 0.00 0.00 30
20260504185732 26 122 1.6 4.8 0.00 0.00 0.00 30
20260504185229 26 226 4.8 9.7 0.00 0.00 0.00 32
20260504184725 27 144 6.4 6.4 0.00 0.00 0.00 30
20260504184221 27 60 1.6 4.8 0.00 0.00 0.00 32
20260504183717 27 64 1.6 3.2 0.00 0.00 0.00 31
20260504183214 26 58 1.6 3.2 0.00 0.00 0.00 33
20260504182712 26 57 1.6 4.8 0.00 0.00 0.00 31
20260504182209 26 4 3.2 4.8 0.00 0.00 0.00 33
20260504181707 26 25 3.2 4.8 0.00 0.00 0.00 34
20260504181204 26 119 6.4 9.7 0.00 0.00 0.00 33
20260504180703 25 221 1.6 12.9 0.00 0.00 0.00 34
20260504180201 26 109 8.0 11.3 0.00 0.00 0.00 33
20260504175658 26 13 3.2 6.4 0.00 0.00 0.00 35
20260504175155 25 95 0.0 3.2 0.00 0.00 0.00 34
20260504174653 26 5 3.2 9.7 0.00 0.00 0.00 36
20260504174149 26 133 8.0 12.9 0.00 0.00 0.00 35
20260504173646 26 110 0.0 1.6 0.00 0.00 0.00 34
20260504173144 26 101 1.6 12.9 0.00 0.00 0.00 36
20260504172640 25 351 1.6 3.2 0.00 0.00 0.00 35
20260504172137 25 79 4.8 9.7 0.00 0.00 0.00 36
20260504171633 25 195 3.2 11.3 0.00 0.00 0.00 36
20260504171131 26 134 3.2 6.4 0.00 0.00 0.00 35
20260504170627 26 54 1.6 1.6 0.00 0.00 0.00 34
20260504170124 26 96 0.0 1.6 0.00 0.00 0.00 35
20260504151010 23 290 6.4 9.7 0.00 0.00 0.00 36
20260504150508 23 274 3.2 6.4 0.00 0.00 0.00 35
20260504140933 21 319 1.6 6.4 0.00 0.00 0.00 57
20260504140429 21 167 1.6 3.2 0.00 0.00 0.00 57
20260504130354 17 143 0.0 1.6 0.00 0.00 0.00 76